2023/02/01 00:00:00,49.3,-1.4
2023/02/01 00:10:00,49.3,-0.8
2023/02/01 00:20:00,49.2,-1.2
2023/02/01 00:30:00,49.2,-0.7
2023/02/01 00:40:00,49.1,-0.4
2023/02/01 00:50:00,49.1,-1.2
2023/02/01 01:00:00,49.1,-0.7
2023/02/01 01:10:00,49.1,-0.8
2023/02/01 01:20:00,49.1,-1.2
2023/02/01 01:30:00,49.0,-1.5
2023/02/01 01:40:00,49.0,-1.1
2023/02/01 01:50:00,49.0,-1.4
2023/02/01 02:00:00,49.0,-1.4
2023/02/01 02:10:00,49.0,-1.2
2023/02/01 02:20:00,49.0,-1.1
2023/02/01 02:30:00,49.0,-1.5
2023/02/01 02:40:00,48.9,-2.0
2023/02/01 02:50:00,48.9,-2.0
2023/02/01 03:00:00,48.8,-1.4
2023/02/01 03:10:00,48.8,-1.7
2023/02/01 03:20:00,48.8,-1.3
2023/02/01 03:30:00,48.8,-1.1
2023/02/01 03:40:00,48.8,-1.1
2023/02/01 03:50:00,48.8,-1.0
2023/02/01 04:00:00,48.8,-1.2
2023/02/01 04:10:00,48.8,-1.3
2023/02/01 04:20:00,48.8,-1.7
2023/02/01 04:30:00,48.8,-1.2
2023/02/01 04:40:00,48.8,-1.0
2023/02/01 04:50:00,48.8,-1.1
2023/02/01 05:00:00,48.8,-1.6
2023/02/01 05:10:00,48.8,-1.7
2023/02/01 05:20:00,48.7,-1.2
2023/02/01 05:30:00,48.7,-0.6
2023/02/01 05:40:00,48.6,-0.9
2023/02/01 05:50:00,48.6,-0.8
2023/02/01 06:00:00,48.6,-0.9
2023/02/01 06:10:00,48.7,-0.7
2023/02/01 06:20:00,48.6,-0.7
2023/02/01 06:30:00,48.6,-0.2
2023/02/01 06:40:00,48.6, 0.0
2023/02/01 06:50:00,48.6, 0.0
2023/02/01 07:00:00,48.6, 0.3
2023/02/01 07:10:00,48.6, 1.8
2023/02/01 07:20:00,48.5, 2.4
2023/02/01 07:30:00,48.3, 3.0
2023/02/01 07:40:00,48.3, 3.4
2023/02/01 07:50:00,48.2, 3.6
2023/02/01 08:00:00,48.2, 3.7
2023/02/01 08:10:00,48.1, 3.5
2023/02/01 08:20:00,47.9, 4.0
2023/02/01 08:30:00,47.8, 3.9
2023/02/01 08:40:00,47.6, 4.2
2023/02/01 08:50:00,47.4, 4.3
2023/02/01 09:00:00,47.2, 4.6
2023/02/01 09:10:00,47.2, 4.9
2023/02/01 09:20:00,47.3, 5.1
2023/02/01 09:30:00,47.2, 5.1
2023/02/01 09:40:00,47.2, 5.1
2023/02/01 09:50:00,47.1, 4.7
2023/02/01 10:00:00,47.0, 5.0
2023/02/01 10:10:00,46.7, 5.3
2023/02/01 10:20:00,46.5, 5.4
2023/02/01 10:30:00,46.4, 5.9
2023/02/01 10:40:00,46.3, 6.0
2023/02/01 10:50:00,46.3, 5.7
2023/02/01 11:00:00,46.2, 6.0
2023/02/01 11:10:00,45.9, 5.8
2023/02/01 11:20:00,46.0, 5.1
2023/02/01 11:30:00,45.9, 5.6
2023/02/01 11:40:00,45.8, 6.5
2023/02/01 11:50:00,45.3, 7.4
2023/02/01 12:00:00,45.1, 6.7
2023/02/01 12:10:00,45.1, 6.1
2023/02/01 12:20:00,45.2, 4.2
2023/02/01 12:30:00,45.2, 3.7
2023/02/01 12:40:00,45.2, 3.6
2023/02/01 12:50:00,45.0, 4.4
2023/02/01 13:00:00,45.0, 6.6
2023/02/01 13:10:00,45.2, 8.7
2023/02/01 13:20:00,44.7, 9.2
2023/02/01 13:30:00,44.5, 9.6
2023/02/01 13:40:00,44.3, 9.6
2023/02/01 13:50:00,44.0, 9.9
2023/02/01 14:00:00,43.9, 9.4
2023/02/01 14:10:00,43.7, 6.8
2023/02/01 14:20:00,43.9, 7.1
2023/02/01 14:30:00,44.0, 5.6
2023/02/01 14:40:00,44.0, 5.0
2023/02/01 14:50:00,44.5, 3.9
2023/02/01 15:00:00,44.4, 3.8
2023/02/01 15:10:00,44.0, 4.7
2023/02/01 15:20:00,43.8, 3.7
2023/02/01 15:30:00,43.8, 3.2
2023/02/01 15:40:00,44.0, 3.4
2023/02/01 15:50:00,43.8, 2.6
2023/02/01 16:00:00,43.6, 2.5
2023/02/01 16:10:00,43.4, 3.1
2023/02/01 16:20:00,43.1, 2.0
2023/02/01 16:30:00,43.0, 2.0
2023/02/01 16:40:00,43.0, 1.8
2023/02/01 16:50:00,42.9, 2.4
2023/02/01 17:00:00,43.0, 2.4
2023/02/01 17:10:00,43.0, 1.8
2023/02/01 17:20:00,43.0, 1.8
2023/02/01 17:30:00,42.8, 1.8
2023/02/01 17:40:00,42.7, 1.6
2023/02/01 17:50:00,42.8, 1.5
2023/02/01 18:00:00,42.8, 1.6
2023/02/01 18:10:00,42.7, 1.6
2023/02/01 18:20:00,42.6, 1.7
2023/02/01 18:30:00,42.5, 1.6
2023/02/01 18:40:00,42.4, 1.7
2023/02/01 18:50:00,42.2, 1.4
2023/02/01 19:00:00,42.1, 1.4
2023/02/01 19:10:00,41.8, 1.7
2023/02/01 19:20:00,41.8, 1.5
2023/02/01 19:30:00,41.8, 1.4
2023/02/01 19:40:00,41.8, 1.1
2023/02/01 19:50:00,41.6, 1.1
2023/02/01 20:00:00,41.7, 1.5
2023/02/01 20:10:00,41.8, 1.3
2023/02/01 20:20:00,41.6, 1.4
2023/02/01 20:30:00,41.4, 1.4
2023/02/01 20:40:00,41.3, 1.4
2023/02/01 20:50:00,41.2, 1.9
2023/02/01 21:00:00,41.0, 1.5
2023/02/01 21:10:00,40.9, 2.0
2023/02/01 21:20:00,40.8, 1.3
2023/02/01 21:30:00,40.7, 1.7
2023/02/01 21:40:00,40.8, 1.2
2023/02/01 21:50:00,40.9, 1.1
2023/02/01 22:00:00,41.0, 1.0
2023/02/01 22:10:00,41.0, 0.7
2023/02/01 22:20:00,41.1, 1.1
2023/02/01 22:30:00,40.9, 1.3
2023/02/01 22:40:00,40.8, 1.1
2023/02/01 22:50:00,40.6, 1.3
2023/02/01 23:00:00,40.4, 1.1
2023/02/01 23:10:00,40.4, 1.3
2023/02/01 23:20:00,40.3, 1.0
2023/02/01 23:30:00,40.2, 0.8
2023/02/01 23:40:00,40.1, 0.9
2023/02/01 23:50:00,40.1, 0.7
